User: anonymous   Login
Location: Unspecified
(0.0000°N, 0.0000°E)
Time: 20:52:52
(UTC+00:00)
Language:

USA 78 - Orbit

View from above orbital plane
View from above orbital plane
View from above satellite
View from above satellite

Ground track
Ground track

The orbit data is extracted from the following two-line orbital elements,

1 21873U 92006A   18110.65997181 0.00000000  00000-0  00000-0 0    08
2 21873  13.6339  26.1663 0008824 284.9996  74.9148  0.99038476    00
Epoch (UTC): 20 April 2018 15:50:21
Eccentricity: 0.0008824
inclination: 13.6339°
perigee height: 36098 km
apogee height: 36173 km
right ascension of ascending node: 26.1663°
argument of perigee: 284.9996°
revolutions per day: 0.99038476
mean anomaly at epoch: 74.9148°
orbit number at epoch: 0

The dashed part of the orbit path shows where the satellite is in the earth's shadow,  

DLR